DLH241 RJTT-RJFF

Flight info

Callsign DLH241
Flight time N/A
Altitude 38000
Route GUSRO Y20 KIRIN
Aircraft A20N/M-SDE2E3FGHIRWXY/LB1

Departure

Time 2026-05-07 14:45
Airport Tokyo Haneda International Airport (RJTT)

Arrival

Time N/A
Airport Fukuoka Airport (RJFF)
Time Latitude Longitude Altitude Speed Heading
2026-05-07 14:15 35.55050 139.79019 22 ft 0 kts 243°
2026-05-07 14:33 35.55050 139.79020 22 ft 1 kts 243°
2026-05-07 14:33 35.55054 139.79028 22 ft 1 kts 243°
2026-05-07 14:33 35.55057 139.79037 22 ft 1 kts 243°
2026-05-07 14:34 35.55061 139.79045 22 ft 1 kts 243°
2026-05-07 14:34 35.55064 139.79054 26 ft 1 kts 243°
2026-05-07 14:34 35.55068 139.79062 25 ft 1 kts 242°
2026-05-07 14:34 35.55071 139.79070 25 ft 1 kts 242°
2026-05-07 14:35 35.55075 139.79079 24 ft 1 kts 247°
2026-05-07 14:35 35.55078 139.79087 26 ft 1 kts 252°
2026-05-07 14:35 35.55080 139.79096 25 ft 1 kts 260°
2026-05-07 14:35 35.55081 139.79106 23 ft 1 kts 265°
2026-05-07 14:36 35.55081 139.79115 24 ft 1 kts 284°
2026-05-07 14:36 35.55079 139.79124 26 ft 1 kts 321°
2026-05-07 14:36 35.55077 139.79126 26 ft 0 kts 333°
2026-05-07 14:38 35.55082 139.79123 24 ft 4 kts 333°
2026-05-07 14:39 35.55129 139.79093 24 ft 11 kts 329°
2026-05-07 14:39 35.55207 139.79074 24 ft 13 kts 32°
2026-05-07 14:39 35.55264 139.79160 23 ft 13 kts 49°
2026-05-07 14:39 35.55344 139.79148 27 ft 14 kts 332°
2026-05-07 14:40 35.55439 139.79085 23 ft 17 kts 330°
2026-05-07 14:40 35.55546 139.79008 26 ft 20 kts 329°
2026-05-07 14:40 35.55627 139.78947 23 ft 22 kts 328°
2026-05-07 14:40 35.55750 139.78866 23 ft 20 kts 330°
2026-05-07 14:41 35.55874 139.78777 24 ft 21 kts 329°
2026-05-07 14:41 35.55985 139.78699 25 ft 17 kts 330°
2026-05-07 14:41 35.56044 139.78657 25 ft 2 kts 330°
2026-05-07 14:41 35.56109 139.78611 23 ft 13 kts 330°
2026-05-07 14:42 35.56168 139.78570 22 ft 16 kts 330°
2026-05-07 14:42 35.56266 139.78500 24 ft 14 kts 329°
2026-05-07 14:42 35.56322 139.78460 23 ft 0 kts 331°
2026-05-07 14:42 35.56348 139.78453 22 ft 8 kts
2026-05-07 14:43 35.56401 139.78508 25 ft 13 kts 58°
2026-05-07 14:43 35.56451 139.78618 25 ft 17 kts 61°
2026-05-07 14:43 35.56449 139.78751 24 ft 17 kts 129°
2026-05-07 14:43 35.56422 139.78777 25 ft 2 kts 147°
2026-05-07 14:44 35.56243 139.78902 24 ft 66 kts 151°
2026-05-07 14:44 35.55650 139.79312 26 ft 126 kts 150°
2026-05-07 14:44 35.54772 139.79954 150 ft 160 kts 150°
2026-05-07 14:44 35.53868 139.80803 603 ft 172 kts 140°
2026-05-07 14:45 35.52959 139.81935 868 ft 201 kts 137°
2026-05-07 14:45 35.51945 139.83260 1294 ft 229 kts 137°
2026-05-07 14:45 35.50768 139.84755 1651 ft 257 kts 139°
2026-05-07 14:45 35.49494 139.86324 1768 ft 261 kts 140°
2026-05-07 14:46 35.48187 139.87902 1873 ft 267 kts 140°
2026-05-07 14:46 35.46842 139.89510 1980 ft 270 kts 139°
2026-05-07 14:46 35.45783 139.91421 1959 ft 279 kts 114°
2026-05-07 14:46 35.45549 139.93809 2172 ft 290 kts 83°
2026-05-07 14:47 35.46274 139.96120 2961 ft 293 kts 53°
2026-05-07 14:47 35.47582 139.97963 4217 ft 289 kts 41°
2026-05-07 14:47 35.49271 139.99269 5312 ft 288 kts 14°
2026-05-07 14:47 35.51234 139.99546 6356 ft 284 kts 347°
2026-05-07 14:48 35.53143 139.98951 7347 ft 284 kts 336°
2026-05-07 14:48 35.55035 139.98187 8332 ft 289 kts 335°
2026-05-07 14:48 35.56966 139.97420 9328 ft 294 kts 336°
2026-05-07 14:48 35.58952 139.96681 10250 ft 302 kts 338°
2026-05-07 14:49 35.61095 139.96134 10734 ft 330 kts 348°
2026-05-07 14:49 35.63491 139.96080 11105 ft 358 kts 359°
2026-05-07 14:49 35.64529 139.96165 11340 ft 363 kts 359°